Terminal Aerodrome Forecast
Issued by NWS Denver/Boulder, CO

Home | Current Version | Previous Version | Text Only | Print | Product List | Glossary On
Versions: 1 2 3 4 5 6 7 8 9 10 11 12 13 14 15 16 17 18 19 20 21 22 23 24 25 26 27 28 29 30 31 32 33 34 35 36 37 38 39 40 41 42 43 44 45 46 47 48 49 50
000
FTUS45 KBOU 251559 AAC
TAFDEN
TAF AMD
KDEN 251559Z 2516/2618 35008KT P6SM SCT014 SCT100
      TEMPO 2516/2517 BKN014
     FM251900 06006KT P6SM SCT030 SCT100
     FM252300 09008KT P6SM VCSH SCT040 BKN100
     FM260300 13011KT P6SM SCT050 BKN070
     FM260800 20006KT P6SM SCT010
     FM261500 03006KT P6SM FEW060=

USA.gov is the U.S. government's official web portal to all federal, state and local government web resources and services.